FENGYUN 1C DEB, 30684

Orbit data source: Space-Track

FENGYUN 1C DEB, 30684 is space debris in SSO originally from a launch on Mon, 10 May 1999 UTC launched from the Taiyaun Space Center, China (TSC). Fengyun 1C debris stems from the Chinese weather satellite Fengyun-1C, which was intentionally destroyed by a Chinese anti-satellite missile in 2007. This event dramatically increased the amount of space debris, with thousands of trackable fragments posing hazards to satellites and human spaceflight. The Fengyun 1C debris cloud has become a focal point in discussions about space sustainability and the need for international regulations to prevent the creation of new debris.

Loading next visibility...
Identifier
30684, 1999-025AQS
Orbit
SSO
Country
Flag of CNCN / PRC
Related business
Manufacturer
Unknown
Mission
Spacecraft
Bus & Motor
Unknown
Mass
Unknown
Launch date (UTC)
1999-05-10 (27 years ago)
Launch vehicle
Unknown
Launch site
Taiyaun Space Center, China (TSC)
Object type
Payload
Rocket body
Debris
Shape & HBR
Unknown shape, 0.1 m
Radar Cross Section
Medium (>0.1 m² and <1 m²)

Expand to show TLE details & history
Last TLE update: 8 hours ago

TLE from 8 hours ago
0 FENGYUN 1C DEB
1 30684U 99025AQS 26256.06215828  .00000734  00000-0  76860-3 0  9993
2 30684  99.5115 298.3341 0233707 284.8459  72.6907 13.67328000973779
Epoch: 2026-09-13T01:29Z
TLE epoch observation values (Epoch: 2026-09-13T01:29:30.475Z)
Latitude
-0.00007°
Longitude
-76.10507°
Altitude
964.336 km
Speed
7.393 km/s
True Right ascension
19h 53m 20s
True Declination
0° 00' 00"
Sunlit
Object was in full shadow at epoch
Visualization orbit readout
Latitude
Unknown
Longitude
Unknown
Altitude
Unknown
Speed
Unknown
Apparent Right ascension
Unknown
Apparent Declination
Unknown
Sunlit
N/A
Visualization observer readout
Local Sidereal Time
01:48:01
Azimuth
Unknown
Elevation
Unknown
Doppler factor
Unknown
Orbital elements
Apogee altitude
1,179.029 km
Perigee altitude
833.863 km
Semi-major axis
7,384.583 km
Eccentricity
0.02337
Inclination
99.5115°
RAAN
298.3341°
Arg. of periapsis
284.8459°
True anomaly
75.26904°
Mean anomaly
72.6907°
Eccentric anomaly
73.97773°
Mean motion
3.42022 °/min
Orbital period
105.26 mins
BSTAR
0.0007686
Loading maneuver chart data...
Computing Atmospheric mass density...

Documentation

Showing up to 5 results
|